TimeEST,TemperatureF,Dew PointF,Humidity,Sea Level PressureIn,VisibilityMPH,Wind Direction,Wind SpeedMPH,Gust SpeedMPH,PrecipitationIn,Events,Conditions,WindDirDegrees,DateUTC
12:56 AM,50.0,32.0,50,30.00,10.0,North,5.8,-,N/A,,Clear,350,2013-11-19 05:56:00
1:56 AM,48.9,30.9,50,30.00,10.0,North,5.8,-,N/A,,Clear,10,2013-11-19 06:56:00
2:56 AM,48.0,28.9,48,30.02,10.0,Calm,Calm,-,N/A,,Clear,0,2013-11-19 07:56:00
3:56 AM,42.1,32.0,67,30.03,10.0,Calm,Calm,-,N/A,,Clear,0,2013-11-19 08:56:00
4:56 AM,42.1,30.9,65,30.05,10.0,NNE,3.5,-,N/A,,Clear,30,2013-11-19 09:56:00
5:56 AM,43.0,30.9,62,30.07,10.0,NNE,4.6,-,N/A,,Clear,30,2013-11-19 10:56:00
6:56 AM,39.0,30.9,73,30.11,10.0,NNE,3.5,-,N/A,,Clear,20,2013-11-19 11:56:00
7:56 AM,43.0,33.1,68,30.14,10.0,NNE,4.6,-,N/A,,Clear,20,2013-11-19 12:56:00
8:56 AM,48.9,32.0,52,30.17,10.0,NE,6.9,-,N/A,,Clear,50,2013-11-19 13:56:00
9:56 AM,53.1,27.0,37,30.18,10.0,NE,12.7,-,N/A,,Clear,50,2013-11-19 14:56:00
10:56 AM,55.0,25.0,31,30.18,10.0,ENE,11.5,-,N/A,,Clear,70,2013-11-19 15:56:00
11:56 AM,57.0,25.0,29,30.18,10.0,NE,10.4,17.3,N/A,,Clear,40,2013-11-19 16:56:00
12:56 PM,59.0,23.0,25,30.15,10.0,NNE,9.2,16.1,N/A,,Clear,30,2013-11-19 17:56:00
1:56 PM,60.1,21.9,23,30.13,10.0,North,8.1,-,N/A,,Clear,10,2013-11-19 18:56:00
2:56 PM,60.1,21.0,22,30.12,10.0,NE,8.1,-,N/A,,Clear,50,2013-11-19 19:56:00
3:56 PM,59.0,21.0,23,30.13,10.0,NNE,9.2,-,N/A,,Clear,20,2013-11-19 20:56:00
4:56 PM,54.0,25.0,33,30.14,10.0,NNE,3.5,-,N/A,,Clear,20,2013-11-19 21:56:00
5:56 PM,50.0,25.0,38,30.14,10.0,NE,4.6,-,N/A,,Clear,40,2013-11-19 22:56:00
6:56 PM,48.0,26.1,42,30.18,10.0,NE,5.8,-,N/A,,Clear,50,2013-11-19 23:56:00
7:56 PM,46.9,25.0,42,30.20,10.0,NE,3.5,-,N/A,,Clear,50,2013-11-20 00:56:00
8:56 PM,45.0,25.0,46,30.22,10.0,NE,4.6,-,N/A,,Clear,50,2013-11-20 01:56:00
9:56 PM,46.0,25.0,44,30.24,10.0,NE,5.8,-,N/A,,Clear,50,2013-11-20 02:56:00
10:56 PM,46.0,25.0,44,30.23,10.0,Calm,Calm,-,N/A,,Clear,0,2013-11-20 03:56:00
11:56 PM,48.0,25.0,41,30.25,10.0,ENE,6.9,-,N/A,,Clear,70,2013-11-20 04:56:00